Find KUIPER-00489

NORAD ID: 68880 Int'l Des: 2026-095S Owner: kuiper Country: USA Constellation: kuiper operational
LEOCIRCULAR

リアルタイム位置

3D地球を読み込み中...

KUIPER-00489について

説明を読み込み中...

次回通過

Passes for default location (London). Set your location on the main map for personalized predictions.

高度履歴

Loading altitude history...

軌道要素

1 68880U 26095S 26121.83336806 .00056095 00000-0 15586-2 0 9993
2 68880 51.8740 106.5524 0010023 133.2438 9.6305 15.36283664 1806
Epoch: May 1, 2026 • Age: 6 hours

現在のステータス

高度 459.3 km
速度 7.64 km/s
衛星直下点 24.57°N, 120.17°W
タイプ internet

Most Searched